AUA487 LOWW-LPMA

Flight info

Callsign AUA487
Flight time N/A
Altitude 34000
Route OSPEN DCT ABRUK DCT SETAL DCT DETSA/N0454F350 DCT TAGIP DCT VOG DCT GEKBA DCT VAMTU DCT KOLON DCT GANGU DCT PADKO DCT DIVKO DCT NILDU DCT NENDA DCT BCN DCT ANTON DCT XIKEN DCT OSLAP DCT SALAS DCT RAMON DCT NEXAS DCT DISVU DCT ADUXO/N0452F370 DCT CJN DCT PALIO DCT AKOKI DCT GOTOR DCT TLD DCT NATPA DCT MELON DCT CCS DCT NARTA DCT GALPA DCT RAKUN
Aircraft A320/M-SDE3FGHIRWY/LB1

Departure

Time N/A
Airport Vienna International Airport (LOWW)

Arrival

Time 2026-05-06 13:52
Airport Cristiano Ronaldo International Airport (LPMA)
Time Latitude Longitude Altitude Speed Heading
2026-05-06 13:25 34.34919 -14.79210 37120 ft 450 kts 232°
2026-05-06 13:26 34.32754 -14.81955 37105 ft 450 kts 231°
2026-05-06 13:26 34.28428 -14.87430 37125 ft 450 kts 231°
2026-05-06 13:27 34.24124 -14.92874 37125 ft 450 kts 231°
2026-05-06 13:27 34.19807 -14.98316 37102 ft 451 kts 232°
2026-05-06 13:28 34.15454 -15.03795 37105 ft 452 kts 232°
2026-05-06 13:28 34.11089 -15.09274 37112 ft 453 kts 232°
2026-05-06 13:29 34.06717 -15.14755 37116 ft 453 kts 232°
2026-05-06 13:29 34.02346 -15.20236 37100 ft 453 kts 231°
2026-05-06 13:30 33.97967 -15.25711 37113 ft 454 kts 231°
2026-05-06 13:30 33.93578 -15.31184 37120 ft 454 kts 231°
2026-05-06 13:31 33.89170 -15.36689 36141 ft 462 kts 231°
2026-05-06 13:31 33.86923 -15.39498 35202 ft 468 kts 231°
2026-05-06 13:31 33.84659 -15.42318 34423 ft 469 kts 230°
2026-05-06 13:31 33.82393 -15.45135 33622 ft 468 kts 230°
2026-05-06 13:32 33.80129 -15.47940 32865 ft 466 kts 230°
2026-05-06 13:32 33.77872 -15.50734 32045 ft 466 kts 231°
2026-05-06 13:32 33.75620 -15.53526 31303 ft 464 kts 231°
2026-05-06 13:32 33.73380 -15.56303 30602 ft 461 kts 231°
2026-05-06 13:33 33.71153 -15.59059 29925 ft 458 kts 231°
2026-05-06 13:33 33.68941 -15.61789 29194 ft 454 kts 231°
2026-05-06 13:33 33.66758 -15.64480 28475 ft 450 kts 231°
2026-05-06 13:33 33.64588 -15.67158 27885 ft 444 kts 231°
2026-05-06 13:34 33.62445 -15.69806 27274 ft 440 kts 231°
2026-05-06 13:34 33.60328 -15.72421 26726 ft 434 kts 231°
2026-05-06 13:34 33.58236 -15.75001 26192 ft 429 kts 231°
2026-05-06 13:34 33.56198 -15.77513 25685 ft 423 kts 230°
2026-05-06 13:35 33.54150 -15.80014 25178 ft 418 kts 230°
2026-05-06 13:35 33.52097 -15.82451 24680 ft 413 kts 229°
2026-05-06 13:35 33.50050 -15.84836 24197 ft 408 kts 228°
2026-05-06 13:35 33.48019 -15.87182 23703 ft 403 kts 228°
2026-05-06 13:36 33.46011 -15.89501 23171 ft 398 kts 228°
2026-05-06 13:36 33.44034 -15.91791 22695 ft 393 kts 228°
2026-05-06 13:36 33.42090 -15.94054 22216 ft 387 kts 228°
2026-05-06 13:36 33.40176 -15.96294 21749 ft 383 kts 228°
2026-05-06 13:37 33.38284 -15.98514 21272 ft 379 kts 228°
2026-05-06 13:37 33.36411 -16.00708 20781 ft 376 kts 228°
2026-05-06 13:37 33.34547 -16.02889 20318 ft 373 kts 228°
2026-05-06 13:37 33.32694 -16.05055 19829 ft 372 kts 228°
2026-05-06 13:38 33.30846 -16.07207 19345 ft 370 kts 228°
2026-05-06 13:38 33.29004 -16.09348 18872 ft 369 kts 228°
2026-05-06 13:38 33.27164 -16.11488 18378 ft 368 kts 227°
2026-05-06 13:38 33.25336 -16.13611 17878 ft 366 kts 227°
2026-05-06 13:39 33.23517 -16.15723 17394 ft 363 kts 227°
2026-05-06 13:39 33.21711 -16.17819 16925 ft 361 kts 227°
2026-05-06 13:39 33.19919 -16.19902 16470 ft 358 kts 227°
2026-05-06 13:39 33.18134 -16.21975 16011 ft 356 kts 227°
2026-05-06 13:40 33.16367 -16.24026 15557 ft 354 kts 227°
2026-05-06 13:40 33.14606 -16.26070 15103 ft 352 kts 227°
2026-05-06 13:40 33.12853 -16.28104 14653 ft 351 kts 227°
2026-05-06 13:40 33.11105 -16.30126 14195 ft 349 kts 227°
2026-05-06 13:41 33.09385 -16.32117 13736 ft 348 kts 227°
2026-05-06 13:41 33.07652 -16.34117 13262 ft 347 kts 227°
2026-05-06 13:41 33.05925 -16.36110 12795 ft 344 kts 227°
2026-05-06 13:41 33.04212 -16.38090 12356 ft 342 kts 226°
2026-05-06 13:42 33.02512 -16.40055 11895 ft 340 kts 227°
2026-05-06 13:42 33.00816 -16.42012 11426 ft 339 kts 226°
2026-05-06 13:42 32.99123 -16.43965 10969 ft 339 kts 226°
2026-05-06 13:42 32.97434 -16.45914 10509 ft 338 kts 226°
2026-05-06 13:43 32.95763 -16.47834 10313 ft 328 kts 226°
2026-05-06 13:43 32.94144 -16.49689 10200 ft 317 kts 226°
2026-05-06 13:43 32.92580 -16.51477 10067 ft 308 kts 226°
2026-05-06 13:43 32.91027 -16.53191 9821 ft 302 kts 225°
2026-05-06 13:44 32.89475 -16.54852 9439 ft 300 kts 225°
2026-05-06 13:44 32.87933 -16.56481 9264 ft 291 kts 224°
2026-05-06 13:44 32.86446 -16.58046 9128 ft 280 kts 224°
2026-05-06 13:44 32.85027 -16.59544 8882 ft 274 kts 224°
2026-05-06 13:45 32.83613 -16.61043 8566 ft 271 kts 225°
2026-05-06 13:45 32.80534 -16.63558 7889 ft 271 kts 204°
2026-05-06 13:45 32.78760 -16.64295 7556 ft 269 kts 201°
2026-05-06 13:46 32.76996 -16.65007 7233 ft 267 kts 201°
2026-05-06 13:46 32.75247 -16.65717 6877 ft 265 kts 202°
2026-05-06 13:46 32.73505 -16.66427 6326 ft 264 kts 202°
2026-05-06 13:46 32.71774 -16.67131 5752 ft 260 kts 202°
2026-05-06 13:47 32.70074 -16.67823 5194 ft 257 kts 200°
2026-05-06 13:47 32.68383 -16.68509 4634 ft 255 kts 199°
2026-05-06 13:47 32.66699 -16.69190 3939 ft 258 kts 200°
2026-05-06 13:47 32.64975 -16.69887 3239 ft 262 kts 199°
2026-05-06 13:48 32.63364 -16.70653 3043 ft 242 kts 211°
2026-05-06 13:48 32.62069 -16.71873 2491 ft 239 kts 232°
2026-05-06 13:48 32.61229 -16.73505 2241 ft 224 kts 251°
2026-05-06 13:48 32.60869 -16.75206 2147 ft 205 kts 269°
2026-05-06 13:49 32.60918 -16.76840 2063 ft 194 kts 283°
2026-05-06 13:49 32.61340 -16.78338 1955 ft 186 kts 303°
2026-05-06 13:49 32.62135 -16.79464 1675 ft 173 kts 324°
2026-05-06 13:49 32.63127 -16.80120 1416 ft 160 kts 342°
2026-05-06 13:50 32.64172 -16.80340 1209 ft 146 kts
2026-05-06 13:50 32.65146 -16.80324 1049 ft 135 kts
2026-05-06 13:50 32.66088 -16.80322 807 ft 132 kts
2026-05-06 13:50 32.66990 -16.80132 657 ft 132 kts 16°
2026-05-06 13:51 32.67803 -16.79657 496 ft 132 kts 31°
2026-05-06 13:51 32.68495 -16.78945 323 ft 132 kts 39°
2026-05-06 13:51 32.69127 -16.78212 193 ft 126 kts 38°
2026-05-06 13:51 32.69679 -16.77577 198 ft 80 kts 44°
2026-05-06 13:52 32.69917 -16.77296 203 ft 36 kts 45°
2026-05-06 13:52 32.69955 -16.77167 200 ft 4 kts 154°
2026-05-06 13:52 32.69910 -16.77160 195 ft 13 kts 174°
2026-05-06 13:52 32.69781 -16.77250 182 ft 28 kts 226°
2026-05-06 13:53 32.69653 -16.77407 179 ft 25 kts 226°
2026-05-06 13:53 32.69532 -16.77557 176 ft 26 kts 226°
2026-05-06 13:53 32.69436 -16.77675 174 ft 16 kts 227°
2026-05-06 13:53 32.69389 -16.77687 173 ft 7 kts 131°
2026-05-06 13:54 32.69371 -16.77669 172 ft 1 kts 139°
2026-05-06 13:54 32.69363 -16.77661 172 ft 2 kts 136°
2026-05-06 13:54 32.69359 -16.77656 172 ft 0 kts 137°